Location: Lake Almanor
(40.2485°N, 121.1442°W)
Time: 22:03:44
(UTC-08:00)

STARLINK-1090 - Pass Details

Date: 03 February 2020
Orbit: 348 x 351 km, 53.0° (Epoch: 22 February)

Event Time Altitude Azimuth Distance (km) Brightness Sun altitude
Rises 17:52:14 0° 306° (NW) 2,167 7.2 -5.7°
Reaches altitude 10° 17:54:16 10° 303° (WNW) 1,320 6.2 -6.1°
Maximum altitude 17:57:10 60° 223° (SW) 409 3.3 -6.6°
Drops below altitude 10° 18:00:03 10° 142° (SE) 1,312 5.3 -7.1°
Sets 18:02:04 0° 138° (SE) 2,151 6.4 -7.5°
